Regional Weather Roundup
Issued by NWS

Home | Current Version | Previous Version | Text Only | Print | Product List | Glossary On
Versions: 1 2 3 4 5 6 7 8 9 10 11 12 13 14 15 16 17 18 19 20 21 22 23 24 25 26 27
000
ASUS44 KBMX 221310
RWRAL

ALABAMA REGIONAL WEATHER ROUNDUP
NATIONAL WEATHER SERVICE BIRMINGHAM AL
700 AM CST SUN JAN 22 2017

NOTE: "FAIR" INDICATES FEW OR NO CLOUDS BELOW 12,000 FEET
WITH NO SIGNIFICANT WEATHER AND/OR OBSTRUCTIONS TO VISIBILITY.

THE REMARK "TC" DENOTES TEMPERATURE IN DEGREES CELSIUS.

ALZ001>011-014-016>018-020-221400-
NORTH ALABAMA

CITY           SKY/WX    TMP DP  RH WIND       PRES   REMARKS
MUSCLE SHOALS  PTCLDY    55  53  93 SE7       29.47S
HUNTSVILLE     CLOUDY    56  55  97 S12       29.50R
DECATUR        CLOUDY    55  55 100 S13       29.50R
HALEYVILLE     CLOUDY    55  54  96 S8        29.50F
GADSDEN        MOCLDY    53  52  96 CALM      29.53S
$$

ALZ012-013-022-023-030>036-040>044-221400-
WEST CENTRAL ALABAMA

CITY           SKY/WX    TMP DP  RH WIND       PRES   REMARKS
TUSCALOOSA     PTCLDY    56  55  97 CALM      29.46F
$$

ALZ015-024>027-033>036-040>044-221400-
CENTRAL ALABAMA

CITY           SKY/WX    TMP DP  RH WIND       PRES   REMARKS
BIRMINGHAM     CLOUDY    59  58  96 CALM      29.52F
MONTGOMERY     CLOUDY    64  60  87 E5        29.49F
SHELBY CO ARPT CLOUDY    59  59 100 S3        29.51F FOG
MAXWELL AFB    CLOUDY    61  61 100 NE3       29.49F
GREENVILLE     FOG       64  61  90 CALM      29.48F VSB 1/4
$$

ALZ019-021-028-029-037-038-045>048-221400-
EAST CENTRAL ALABAMA

CITY           SKY/WX    TMP DP  RH WIND       PRES   REMARKS
ANNISTON       MOCLDY    59  57  93 NE5       29.54S
ALEXANDER CITY CLOUDY    61  60  96 CALM      29.53F
AUBURN         CLOUDY    61  59  94 E5        29.56S
$$

ALZ051>064-221400-
SOUTHWEST ALABAMA

CITY           SKY/WX    TMP DP  RH WIND       PRES   REMARKS
MOBILE         MOCLDY    66  64  93 CALM      29.49F FOG
BROOKLEY FIELD CLOUDY    69  67  93 CALM      29.50F
EVERGREEN      FOG       63  62  97 S3        29.49F VSB 1/4
$$

ALZ049-050-065>069-221400-
SOUTHEAST ALABAMA

CITY           SKY/WX    TMP DP  RH WIND       PRES   REMARKS
DOTHAN         PTCLDY    70  70 100 SW7       29.55F
OZARK          PTCLDY    69  69 100 CALM      29.51F
TROY           FOG       59  59 100 CALM      29.51F VSB 1/4
EUFAULA        CLOUDY    62  61  96 CALM      29.53S
$$




USA.gov is the U.S. government's official web portal to all federal, state and local government web resources and services.